Year,Month,Day,Hour,Minute,Value (Times are PST for temperature in C)
2013,07,14,00,00,14.80
2013,07,14,00,01,14.70
2013,07,14,00,02,14.70
2013,07,14,00,03,14.60
2013,07,14,00,04,14.60
2013,07,14,00,05,14.60
2013,07,14,00,06,14.60
2013,07,14,00,07,14.50
2013,07,14,00,08,14.50
2013,07,14,00,09,14.50
2013,07,14,00,10,14.50
2013,07,14,00,11,14.50
2013,07,14,00,12,14.50
2013,07,14,00,13,14.50
2013,07,14,00,14,14.40
2013,07,14,00,15,14.40
2013,07,14,00,16,14.40
2013,07,14,00,17,14.40
2013,07,14,00,18,14.40
2013,07,14,00,19,14.30
2013,07,14,00,20,14.30
2013,07,14,00,21,14.30
2013,07,14,00,22,14.30
2013,07,14,00,23,14.30
2013,07,14,00,24,14.30
2013,07,14,00,25,14.20
2013,07,14,00,26,14.20
2013,07,14,00,27,14.20
2013,07,14,00,28,14.20
2013,07,14,00,29,14.20
2013,07,14,00,30,14.20
2013,07,14,00,31,14.20
2013,07,14,00,32,14.10
2013,07,14,00,33,14.10
2013,07,14,00,34,14.10
2013,07,14,00,35,14.10
2013,07,14,00,36,14.10
2013,07,14,00,37,14.20
2013,07,14,00,38,14.10
2013,07,14,00,39,14.10
2013,07,14,00,40,14.00
2013,07,14,00,41,13.90
2013,07,14,00,42,13.90
2013,07,14,00,43,13.80
2013,07,14,00,44,13.80
2013,07,14,00,45,13.70
2013,07,14,00,46,13.70
2013,07,14,00,47,13.70
2013,07,14,00,48,13.70
2013,07,14,00,49,13.60
2013,07,14,00,50,13.60
2013,07,14,00,51,13.60
2013,07,14,00,52,13.50
2013,07,14,00,53,13.50
2013,07,14,00,54,13.40
2013,07,14,00,55,13.40
2013,07,14,00,56,13.30
2013,07,14,00,57,13.30
2013,07,14,00,58,13.20
2013,07,14,00,59,13.20
2013,07,14,01,00,13.10
2013,07,14,01,01,13.00
2013,07,14,01,02,13.00
2013,07,14,01,03,12.90
2013,07,14,01,04,12.90
2013,07,14,01,05,12.90
2013,07,14,01,06,12.80
2013,07,14,01,07,12.80
2013,07,14,01,08,12.80
2013,07,14,01,09,12.70
2013,07,14,01,10,12.70
2013,07,14,01,11,12.70
2013,07,14,01,12,12.70
2013,07,14,01,13,12.70
2013,07,14,01,14,12.70
2013,07,14,01,15,12.70
2013,07,14,01,16,12.70
2013,07,14,01,17,12.70
2013,07,14,01,18,12.70
2013,07,14,01,19,12.70
2013,07,14,01,20,12.70
2013,07,14,01,21,12.70
2013,07,14,01,22,12.70
2013,07,14,01,23,12.70
2013,07,14,01,24,12.70
2013,07,14,01,25,12.70
2013,07,14,01,26,12.70
2013,07,14,01,27,12.70
2013,07,14,01,28,12.70
2013,07,14,01,29,12.70
2013,07,14,01,30,12.70
2013,07,14,01,31,12.60
2013,07,14,01,32,12.60
2013,07,14,01,33,12.60
2013,07,14,01,34,12.60
2013,07,14,01,35,12.60
2013,07,14,01,36,12.60
2013,07,14,01,37,12.60
2013,07,14,01,38,12.60
2013,07,14,01,39,12.60
2013,07,14,01,40,12.60
2013,07,14,01,41,12.60
2013,07,14,01,42,12.60
2013,07,14,01,43,12.60
2013,07,14,01,44,12.60
2013,07,14,01,45,12.60
2013,07,14,01,46,12.60
2013,07,14,01,47,12.60
2013,07,14,01,48,12.60
2013,07,14,01,49,12.50
2013,07,14,01,50,12.50
2013,07,14,01,51,12.50
2013,07,14,01,52,12.50
2013,07,14,01,53,12.50
2013,07,14,01,54,12.50
2013,07,14,01,55,12.50
2013,07,14,01,56,12.40
2013,07,14,01,57,12.40
2013,07,14,01,58,12.40
2013,07,14,01,59,12.40
2013,07,14,02,00,12.40
2013,07,14,02,01,12.30
2013,07,14,02,02,12.30
2013,07,14,02,03,12.30
2013,07,14,02,04,12.30
2013,07,14,02,05,12.30
2013,07,14,02,06,12.30
2013,07,14,02,07,12.20
2013,07,14,02,08,12.20
2013,07,14,02,09,12.20
2013,07,14,02,10,12.20
2013,07,14,02,11,12.20
2013,07,14,02,12,12.20
2013,07,14,02,13,12.10
2013,07,14,02,14,12.10
2013,07,14,02,15,12.10
2013,07,14,02,16,12.10
2013,07,14,02,17,12.10
2013,07,14,02,18,12.10
2013,07,14,02,19,12.00
2013,07,14,02,20,12.00
2013,07,14,02,21,12.00
2013,07,14,02,22,12.00
2013,07,14,02,23,11.90
2013,07,14,02,24,11.90
2013,07,14,02,25,11.90
2013,07,14,02,26,11.90
2013,07,14,02,27,11.90
2013,07,14,02,28,11.90
2013,07,14,02,29,11.80
2013,07,14,02,30,11.80
2013,07,14,02,31,11.80
2013,07,14,02,32,11.80
2013,07,14,02,33,11.80
2013,07,14,02,34,11.80
2013,07,14,02,35,11.80
2013,07,14,02,36,11.70
2013,07,14,02,37,11.70
2013,07,14,02,38,11.70
2013,07,14,02,39,11.70
2013,07,14,02,40,11.70
2013,07,14,02,41,11.70
2013,07,14,02,42,11.70
2013,07,14,02,43,11.60
2013,07,14,02,44,11.60
2013,07,14,02,45,11.60
2013,07,14,02,46,11.60
2013,07,14,02,47,11.60
2013,07,14,02,48,11.60
2013,07,14,02,49,11.50
2013,07,14,02,50,11.50
2013,07,14,02,51,11.50
2013,07,14,02,52,11.50
2013,07,14,02,53,11.50
2013,07,14,02,54,11.50
2013,07,14,02,55,11.50
2013,07,14,02,56,11.50
2013,07,14,02,57,11.50
2013,07,14,02,58,11.50
2013,07,14,02,59,11.50
2013,07,14,03,00,11.50
2013,07,14,03,01,11.50
2013,07,14,03,02,11.50
2013,07,14,03,03,11.50
2013,07,14,03,04,11.50
2013,07,14,03,05,11.50
2013,07,14,03,06,11.50
2013,07,14,03,07,11.50
2013,07,14,03,08,11.50
2013,07,14,03,09,11.50
2013,07,14,03,10,11.50
2013,07,14,03,11,11.40
2013,07,14,03,12,11.40
2013,07,14,03,13,11.40
2013,07,14,03,14,11.40
2013,07,14,03,15,11.40
2013,07,14,03,16,11.30
2013,07,14,03,17,11.30
2013,07,14,03,18,11.30
2013,07,14,03,19,11.30
2013,07,14,03,20,11.30
2013,07,14,03,21,11.40
2013,07,14,03,22,11.40
2013,07,14,03,23,11.40
2013,07,14,03,24,11.40
2013,07,14,03,25,11.40
2013,07,14,03,26,11.40
2013,07,14,03,27,11.40
2013,07,14,03,28,11.40
2013,07,14,03,29,11.40
2013,07,14,03,30,11.40
2013,07,14,03,31,11.40
2013,07,14,03,32,11.40
2013,07,14,03,33,11.40
2013,07,14,03,34,11.30
2013,07,14,03,35,11.30
2013,07,14,03,36,11.30
2013,07,14,03,37,11.30
2013,07,14,03,38,11.30
2013,07,14,03,39,11.30
2013,07,14,03,40,11.30
2013,07,14,03,41,11.20
2013,07,14,03,42,11.20
2013,07,14,03,43,11.20
2013,07,14,03,44,11.20
2013,07,14,03,45,11.10
2013,07,14,03,46,11.10
2013,07,14,03,47,11.10
2013,07,14,03,48,11.10
2013,07,14,03,49,11.10
2013,07,14,03,50,11.10
2013,07,14,03,51,11.00
2013,07,14,03,52,11.00
2013,07,14,03,53,11.00
2013,07,14,03,54,10.90
2013,07,14,03,55,10.90
2013,07,14,03,56,10.90
2013,07,14,03,57,10.90
2013,07,14,03,58,10.90
2013,07,14,03,59,10.90
2013,07,14,04,00,10.90
2013,07,14,04,01,10.80
2013,07,14,04,02,10.80
2013,07,14,04,03,10.80
2013,07,14,04,04,10.80
2013,07,14,04,05,10.80
2013,07,14,04,06,10.80
2013,07,14,04,07,10.80
2013,07,14,04,08,10.70
2013,07,14,04,09,10.70
2013,07,14,04,10,10.70
2013,07,14,04,11,10.70
2013,07,14,04,12,10.70
2013,07,14,04,13,10.70
2013,07,14,04,14,10.60
2013,07,14,04,15,10.60
2013,07,14,04,16,10.60
2013,07,14,04,17,10.60
2013,07,14,04,18,10.60
2013,07,14,04,19,10.60
2013,07,14,04,20,10.60
2013,07,14,04,21,10.60
2013,07,14,04,22,10.60
2013,07,14,04,23,10.60
2013,07,14,04,24,10.60
2013,07,14,04,25,10.60
2013,07,14,04,26,10.60
2013,07,14,04,27,10.60
2013,07,14,04,28,10.50
2013,07,14,04,29,10.50
2013,07,14,04,30,10.50
2013,07,14,04,31,10.50
2013,07,14,04,32,10.50
2013,07,14,04,33,10.50
2013,07,14,04,34,10.50
2013,07,14,04,35,10.50
2013,07,14,04,36,10.50
2013,07,14,04,37,10.50
2013,07,14,04,38,10.50
2013,07,14,04,39,10.50
2013,07,14,04,40,10.50
2013,07,14,04,41,10.50
2013,07,14,04,42,10.50
2013,07,14,04,43,10.50
2013,07,14,04,44,10.40
2013,07,14,04,45,10.40
2013,07,14,04,46,10.40
2013,07,14,04,47,10.40
2013,07,14,04,48,10.40
2013,07,14,04,49,10.40
2013,07,14,04,50,10.40
2013,07,14,04,51,10.40
2013,07,14,04,52,10.40
2013,07,14,04,53,10.40
2013,07,14,04,54,10.40
2013,07,14,04,55,10.40
2013,07,14,04,56,10.30
2013,07,14,04,57,10.40
2013,07,14,04,58,10.40
2013,07,14,04,59,10.40
2013,07,14,05,00,10.40
2013,07,14,05,01,10.40
2013,07,14,05,02,10.40
2013,07,14,05,03,10.40
2013,07,14,05,04,10.40
2013,07,14,05,05,10.40
2013,07,14,05,06,10.40
2013,07,14,05,07,10.40
2013,07,14,05,08,10.40
2013,07,14,05,09,10.40
2013,07,14,05,10,10.40
2013,07,14,05,11,10.30
2013,07,14,05,12,10.30
2013,07,14,05,13,10.30
2013,07,14,05,14,10.30
2013,07,14,05,15,10.30
2013,07,14,05,16,10.30
2013,07,14,05,17,10.20
2013,07,14,05,18,10.20
2013,07,14,05,19,10.20
2013,07,14,05,20,10.20
2013,07,14,05,21,10.20
2013,07,14,05,22,10.20
2013,07,14,05,23,10.10
2013,07,14,05,24,10.10
2013,07,14,05,25,10.10
2013,07,14,05,26,10.10
2013,07,14,05,27,10.10
2013,07,14,05,28,10.10
2013,07,14,05,29,10.10
2013,07,14,05,30,10.10
2013,07,14,05,31,10.10
2013,07,14,05,32,10.10
2013,07,14,05,33,10.00
2013,07,14,05,34,10.00
2013,07,14,05,35,10.00
2013,07,14,05,36,10.00
2013,07,14,05,37,10.00
2013,07,14,05,38,9.90
2013,07,14,05,39,9.90
2013,07,14,05,40,9.90
2013,07,14,05,41,9.90
2013,07,14,05,42,10.00
2013,07,14,05,43,9.90
2013,07,14,05,44,9.90
2013,07,14,05,45,9.90
2013,07,14,05,46,10.00
2013,07,14,05,47,10.10
2013,07,14,05,48,10.10
2013,07,14,05,49,10.10
2013,07,14,05,50,10.20
2013,07,14,05,51,10.20
2013,07,14,05,52,10.20
2013,07,14,05,53,10.20
2013,07,14,05,54,10.20
2013,07,14,05,55,10.20
2013,07,14,05,56,10.20
2013,07,14,05,57,10.20
2013,07,14,05,58,10.20
2013,07,14,05,59,10.20
2013,07,14,06,00,10.20
2013,07,14,06,01,10.20
2013,07,14,06,02,10.20
2013,07,14,06,03,10.20
2013,07,14,06,04,10.20
2013,07,14,06,05,10.20
2013,07,14,06,06,10.20
2013,07,14,06,07,10.20
2013,07,14,06,08,10.20
2013,07,14,06,09,10.20
2013,07,14,06,10,10.20
2013,07,14,06,11,10.20
2013,07,14,06,12,10.20
2013,07,14,06,13,10.20
2013,07,14,06,14,10.30
2013,07,14,06,15,10.30
2013,07,14,06,16,10.30
2013,07,14,06,17,10.30
2013,07,14,06,18,10.30
2013,07,14,06,19,10.40
2013,07,14,06,20,10.40
2013,07,14,06,21,10.40
2013,07,14,06,22,10.50
2013,07,14,06,23,10.50
2013,07,14,06,24,10.60
2013,07,14,06,25,10.70
2013,07,14,06,26,10.70
2013,07,14,06,27,10.80
2013,07,14,06,28,10.90
2013,07,14,06,29,11.00
2013,07,14,06,30,11.10
2013,07,14,06,31,11.20
2013,07,14,06,32,11.30
2013,07,14,06,33,11.40
2013,07,14,06,34,11.50
2013,07,14,06,35,11.60
2013,07,14,06,36,11.70
2013,07,14,06,37,11.70
2013,07,14,06,38,11.80
2013,07,14,06,39,11.80
2013,07,14,06,40,11.80
2013,07,14,06,41,11.80
2013,07,14,06,42,11.90
2013,07,14,06,43,11.90
2013,07,14,06,44,11.90
2013,07,14,06,45,11.90
2013,07,14,06,46,12.00
2013,07,14,06,47,12.00
2013,07,14,06,48,12.00
2013,07,14,06,49,12.10
2013,07,14,06,50,12.10
2013,07,14,06,51,12.10
2013,07,14,06,52,12.10
2013,07,14,06,53,12.10
2013,07,14,06,54,12.10
2013,07,14,06,55,12.10
2013,07,14,06,56,12.10
2013,07,14,06,57,12.20
2013,07,14,06,58,12.20
2013,07,14,06,59,12.20
2013,07,14,07,00,12.20
2013,07,14,07,01,12.20
2013,07,14,07,02,12.20
2013,07,14,07,03,12.20
2013,07,14,07,04,12.30
2013,07,14,07,05,12.30
2013,07,14,07,06,12.30
2013,07,14,07,07,12.30
2013,07,14,07,08,12.40
2013,07,14,07,09,12.40
2013,07,14,07,10,12.50
2013,07,14,07,11,12.50
2013,07,14,07,12,12.60
2013,07,14,07,13,12.60
2013,07,14,07,14,12.70
2013,07,14,07,15,12.70
2013,07,14,07,16,12.80
2013,07,14,07,17,12.80
2013,07,14,07,18,12.90
2013,07,14,07,19,12.90
2013,07,14,07,20,13.00
2013,07,14,07,21,13.10
2013,07,14,07,22,13.10
2013,07,14,07,23,13.20
2013,07,14,07,24,13.20
2013,07,14,07,25,13.30
2013,07,14,07,26,13.40
2013,07,14,07,27,13.50
2013,07,14,07,28,13.60
2013,07,14,07,29,13.60
2013,07,14,07,30,13.70
2013,07,14,07,31,13.80
2013,07,14,07,32,13.90
2013,07,14,07,33,13.90
2013,07,14,07,34,14.00
2013,07,14,07,35,14.10
2013,07,14,07,36,14.20
2013,07,14,07,37,14.20
2013,07,14,07,38,14.30
2013,07,14,07,39,14.40
2013,07,14,07,40,14.50
2013,07,14,07,41,14.60
2013,07,14,07,42,14.70
2013,07,14,07,43,14.70
2013,07,14,07,44,14.80
2013,07,14,07,45,14.90
2013,07,14,07,46,15.00
2013,07,14,07,47,15.10
2013,07,14,07,48,15.10
2013,07,14,07,49,15.20
2013,07,14,07,50,15.30
2013,07,14,07,51,15.30
2013,07,14,07,52,15.40
2013,07,14,07,53,15.50
2013,07,14,07,54,15.60
2013,07,14,07,55,15.60
2013,07,14,07,56,15.70
2013,07,14,07,57,15.80
2013,07,14,07,58,15.90
2013,07,14,07,59,15.90
2013,07,14,08,00,16.00
2013,07,14,08,01,16.10
2013,07,14,08,02,16.20
2013,07,14,08,03,16.30
2013,07,14,08,04,16.40
2013,07,14,08,05,16.40
2013,07,14,08,06,16.50
2013,07,14,08,07,16.50
2013,07,14,08,08,16.60
2013,07,14,08,09,16.60
2013,07,14,08,10,16.70
2013,07,14,08,11,16.70
2013,07,14,08,12,16.70
2013,07,14,08,13,16.80
2013,07,14,08,14,16.80
2013,07,14,08,15,16.90
2013,07,14,08,16,16.90
2013,07,14,08,17,17.00
2013,07,14,08,18,17.10
2013,07,14,08,19,17.10
2013,07,14,08,20,17.20
2013,07,14,08,21,17.20
2013,07,14,08,22,17.30
2013,07,14,08,23,17.30
2013,07,14,08,24,17.40
2013,07,14,08,25,17.40
2013,07,14,08,26,17.50
2013,07,14,08,27,17.60
2013,07,14,08,28,17.80
2013,07,14,08,29,17.90
2013,07,14,08,30,18.00
2013,07,14,08,31,18.10
2013,07,14,08,32,18.20
2013,07,14,08,33,18.30
2013,07,14,08,34,18.40
2013,07,14,08,35,18.50
2013,07,14,08,36,18.50
2013,07,14,08,37,18.70
2013,07,14,08,38,18.80
2013,07,14,08,39,18.80
2013,07,14,08,40,18.90
2013,07,14,08,41,19.00
2013,07,14,08,42,19.00
2013,07,14,08,43,19.10
2013,07,14,08,44,19.20
2013,07,14,08,45,19.30
2013,07,14,08,46,19.30
2013,07,14,08,47,19.40
2013,07,14,08,48,19.40
2013,07,14,08,49,19.40
2013,07,14,08,50,19.40
2013,07,14,08,51,19.40
2013,07,14,08,52,19.50
2013,07,14,08,53,19.50
2013,07,14,08,54,19.50
2013,07,14,08,55,19.50
2013,07,14,08,56,19.50
2013,07,14,08,57,19.50
2013,07,14,08,58,19.50
2013,07,14,08,59,19.40
2013,07,14,09,00,19.30
2013,07,14,09,01,19.30
2013,07,14,09,02,19.20
2013,07,14,09,03,19.20
2013,07,14,09,04,19.20
2013,07,14,09,05,19.10
2013,07,14,09,06,19.10
2013,07,14,09,07,19.10
2013,07,14,09,08,19.10
2013,07,14,09,09,19.20
2013,07,14,09,10,19.20
2013,07,14,09,11,19.20
2013,07,14,09,12,19.20
2013,07,14,09,13,19.20
2013,07,14,09,14,19.20
2013,07,14,09,15,19.20
2013,07,14,09,16,19.30
2013,07,14,09,17,19.30
2013,07,14,09,18,19.40
2013,07,14,09,19,19.50
2013,07,14,09,20,19.50
2013,07,14,09,21,19.40
2013,07,14,09,22,19.40
2013,07,14,09,23,19.30
2013,07,14,09,24,19.20
2013,07,14,09,25,19.20
2013,07,14,09,26,19.20
2013,07,14,09,27,19.20
2013,07,14,09,28,19.10
2013,07,14,09,29,19.20
2013,07,14,09,30,19.20
2013,07,14,09,31,19.20
2013,07,14,09,32,19.20
2013,07,14,09,33,19.30
2013,07,14,09,34,19.40
2013,07,14,09,35,19.40
2013,07,14,09,36,19.40
2013,07,14,09,37,19.40
2013,07,14,09,38,19.30
2013,07,14,09,39,19.30
2013,07,14,09,40,19.20
2013,07,14,09,41,19.20
2013,07,14,09,42,19.20
2013,07,14,09,43,19.30
2013,07,14,09,44,19.30
2013,07,14,09,45,19.30
2013,07,14,09,46,19.40
2013,07,14,09,47,19.40
2013,07,14,09,48,19.40
2013,07,14,09,49,19.40
2013,07,14,09,50,19.40
2013,07,14,09,51,19.50
2013,07,14,09,52,19.50
2013,07,14,09,53,19.50
2013,07,14,09,54,19.60
2013,07,14,09,55,19.70
2013,07,14,09,56,19.80
2013,07,14,09,57,19.80
2013,07,14,09,58,19.70
2013,07,14,09,59,19.60
2013,07,14,10,00,19.60
2013,07,14,10,01,19.60
2013,07,14,10,02,19.70
2013,07,14,10,03,19.80
2013,07,14,10,04,19.90
2013,07,14,10,05,20.00
2013,07,14,10,06,20.00
2013,07,14,10,07,20.00
2013,07,14,10,08,20.10
2013,07,14,10,09,20.00
2013,07,14,10,10,20.00
2013,07,14,10,11,19.90
2013,07,14,10,12,19.80
2013,07,14,10,13,19.70
2013,07,14,10,14,19.70
2013,07,14,10,15,19.70
2013,07,14,10,16,19.70
2013,07,14,10,17,19.70
2013,07,14,10,18,19.70
2013,07,14,10,19,19.70
2013,07,14,10,20,19.70
2013,07,14,10,21,19.70
2013,07,14,10,22,19.80
2013,07,14,10,23,19.80
2013,07,14,10,24,19.90
2013,07,14,10,25,19.90
2013,07,14,10,26,20.00
2013,07,14,10,27,20.10
2013,07,14,10,28,20.10
2013,07,14,10,29,20.10
2013,07,14,10,30,20.10
2013,07,14,10,31,20.10
2013,07,14,10,32,20.20
2013,07,14,10,33,20.20
2013,07,14,10,34,20.30
2013,07,14,10,35,20.30
2013,07,14,10,36,20.30
2013,07,14,10,37,20.30
2013,07,14,10,38,20.20
2013,07,14,10,39,20.20
2013,07,14,10,40,20.20
2013,07,14,10,41,20.30
2013,07,14,10,42,20.30
2013,07,14,10,43,20.30
2013,07,14,10,44,20.30
2013,07,14,10,45,20.30
2013,07,14,10,46,20.40
2013,07,14,10,47,20.50
2013,07,14,10,48,20.60
2013,07,14,10,49,20.70
2013,07,14,10,50,20.70
2013,07,14,10,51,20.60
2013,07,14,10,52,20.50
2013,07,14,10,53,20.50
2013,07,14,10,54,20.50
2013,07,14,10,55,20.50
2013,07,14,10,56,20.40
2013,07,14,10,57,20.20
2013,07,14,10,58,20.20
2013,07,14,10,59,20.20
2013,07,14,11,00,20.20
2013,07,14,11,01,20.20
2013,07,14,11,02,20.20
2013,07,14,11,03,20.10
2013,07,14,11,04,20.00
2013,07,14,11,05,20.00
2013,07,14,11,06,19.90
2013,07,14,11,07,19.90
2013,07,14,11,08,19.90
2013,07,14,11,09,19.80
2013,07,14,11,10,19.80
2013,07,14,11,11,19.80
2013,07,14,11,12,19.90
2013,07,14,11,13,19.90
2013,07,14,11,14,20.00
2013,07,14,11,15,20.00
2013,07,14,11,16,20.00
2013,07,14,11,17,19.90
2013,07,14,11,18,19.90
2013,07,14,11,19,19.90
2013,07,14,11,20,19.90
2013,07,14,11,21,19.90
2013,07,14,11,22,19.90
2013,07,14,11,23,20.00
2013,07,14,11,24,20.10
2013,07,14,11,25,20.10
2013,07,14,11,26,20.00
2013,07,14,11,27,20.00
2013,07,14,11,28,19.90
2013,07,14,11,29,19.80
2013,07,14,11,30,19.90
2013,07,14,11,31,19.90
2013,07,14,11,32,19.90
2013,07,14,11,33,19.90
2013,07,14,11,34,20.00
2013,07,14,11,35,20.00
2013,07,14,11,36,20.10
2013,07,14,11,37,20.20
2013,07,14,11,38,20.20
2013,07,14,11,39,20.30
2013,07,14,11,40,20.40
2013,07,14,11,41,20.50
2013,07,14,11,42,20.60
2013,07,14,11,43,20.60
2013,07,14,11,44,20.70
2013,07,14,11,45,20.70
2013,07,14,11,46,20.70
2013,07,14,11,47,20.60
2013,07,14,11,48,20.60
2013,07,14,11,49,20.50
2013,07,14,11,50,20.50
2013,07,14,11,51,20.50
2013,07,14,11,52,20.40
2013,07,14,11,53,20.50
2013,07,14,11,54,20.50
2013,07,14,11,55,20.50
2013,07,14,11,56,20.50
2013,07,14,11,57,20.40
2013,07,14,11,58,20.40
2013,07,14,11,59,20.40
2013,07,14,12,00,20.40
2013,07,14,12,01,20.40
2013,07,14,12,02,20.40
2013,07,14,12,03,20.40
2013,07,14,12,04,20.50
2013,07,14,12,05,20.70
2013,07,14,12,06,20.70
2013,07,14,12,07,20.80
2013,07,14,12,08,20.80
2013,07,14,12,09,20.90
2013,07,14,12,10,20.90
2013,07,14,12,11,20.90
2013,07,14,12,12,20.90
2013,07,14,12,13,20.70
2013,07,14,12,14,20.70
2013,07,14,12,15,20.60
2013,07,14,12,16,20.60
2013,07,14,12,17,20.60
2013,07,14,12,18,20.60
2013,07,14,12,19,20.50
2013,07,14,12,20,20.50
2013,07,14,12,21,20.60
2013,07,14,12,22,20.60
2013,07,14,12,23,20.50
2013,07,14,12,24,20.50
2013,07,14,12,25,20.40
2013,07,14,12,26,20.40
2013,07,14,12,27,20.40
2013,07,14,12,28,20.40
2013,07,14,12,29,20.40
2013,07,14,12,30,20.40
2013,07,14,12,31,20.30
2013,07,14,12,32,20.30
2013,07,14,12,33,20.30
2013,07,14,12,34,20.20
2013,07,14,12,35,20.20
2013,07,14,12,36,20.30
2013,07,14,12,37,20.30
2013,07,14,12,38,20.30
2013,07,14,12,39,20.30
2013,07,14,12,40,20.30
2013,07,14,12,41,20.30
2013,07,14,12,42,20.30
2013,07,14,12,43,20.30
2013,07,14,12,44,20.30
2013,07,14,12,45,20.30
2013,07,14,12,46,20.30
2013,07,14,12,47,20.40
2013,07,14,12,48,20.40
2013,07,14,12,49,20.40
2013,07,14,12,50,20.40
2013,07,14,12,51,20.50
2013,07,14,12,52,20.50
2013,07,14,12,53,20.60
2013,07,14,12,54,20.70
2013,07,14,12,55,20.60
2013,07,14,12,56,20.50
2013,07,14,12,57,20.40
2013,07,14,12,58,20.30
2013,07,14,12,59,20.20
2013,07,14,13,00,20.20
2013,07,14,13,01,20.20
2013,07,14,13,02,20.20
2013,07,14,13,03,20.20
2013,07,14,13,04,20.20
2013,07,14,13,05,20.30
2013,07,14,13,06,20.30
2013,07,14,13,07,20.40
2013,07,14,13,08,20.50
2013,07,14,13,09,20.60
2013,07,14,13,10,20.70
2013,07,14,13,11,20.60
2013,07,14,13,12,20.50
2013,07,14,13,13,20.40
2013,07,14,13,14,20.30
2013,07,14,13,15,20.40
2013,07,14,13,16,20.40
2013,07,14,13,17,20.30
2013,07,14,13,18,20.20
2013,07,14,13,19,20.10
2013,07,14,13,20,20.10
2013,07,14,13,21,20.00
2013,07,14,13,22,19.90
2013,07,14,13,23,19.80
2013,07,14,13,24,19.80
2013,07,14,13,25,19.80
2013,07,14,13,26,19.90
2013,07,14,13,27,20.00
2013,07,14,13,28,20.10
2013,07,14,13,29,20.10
2013,07,14,13,30,20.00
2013,07,14,13,31,20.00
2013,07,14,13,32,20.10
2013,07,14,13,33,20.10
2013,07,14,13,34,20.10
2013,07,14,13,35,20.00
2013,07,14,13,36,20.10
2013,07,14,13,37,20.10
2013,07,14,13,38,20.10
2013,07,14,13,39,20.10
2013,07,14,13,40,20.20
2013,07,14,13,41,20.20
2013,07,14,13,42,20.20
2013,07,14,13,43,20.20
2013,07,14,13,44,20.20
2013,07,14,13,45,20.20
2013,07,14,13,46,20.30
2013,07,14,13,47,20.30
2013,07,14,13,48,20.40
2013,07,14,13,49,20.50
2013,07,14,13,50,20.60
2013,07,14,13,51,20.60
2013,07,14,13,52,20.60
2013,07,14,13,53,20.60
2013,07,14,13,54,20.60
2013,07,14,13,55,20.70
2013,07,14,13,56,20.80
2013,07,14,13,57,20.90
2013,07,14,13,58,20.80
2013,07,14,13,59,20.70
2013,07,14,14,00,20.70
2013,07,14,14,01,20.50
2013,07,14,14,02,20.30
2013,07,14,14,03,20.10
2013,07,14,14,04,19.90
2013,07,14,14,05,19.80
2013,07,14,14,06,19.80
2013,07,14,14,07,19.60
2013,07,14,14,08,19.60
2013,07,14,14,09,19.60
2013,07,14,14,10,19.60
2013,07,14,14,11,19.50
2013,07,14,14,12,19.40
2013,07,14,14,13,19.40
2013,07,14,14,14,19.40
2013,07,14,14,15,19.40
2013,07,14,14,16,19.40
2013,07,14,14,17,19.40
2013,07,14,14,18,19.30
2013,07,14,14,19,19.20
2013,07,14,14,20,19.20
2013,07,14,14,21,19.20
2013,07,14,14,22,19.00
2013,07,14,14,23,19.00
2013,07,14,14,24,18.80
2013,07,14,14,25,18.60
2013,07,14,14,26,18.40
2013,07,14,14,27,18.30
2013,07,14,14,28,18.30
2013,07,14,14,29,18.30
2013,07,14,14,30,18.20
2013,07,14,14,31,18.20
2013,07,14,14,32,18.20
2013,07,14,14,33,18.20
2013,07,14,14,34,18.10
2013,07,14,14,35,18.00
2013,07,14,14,36,18.00
2013,07,14,14,37,18.00
2013,07,14,14,38,18.10
2013,07,14,14,39,18.10
2013,07,14,14,40,18.10
2013,07,14,14,41,18.00
2013,07,14,14,42,17.90
2013,07,14,14,43,17.80
2013,07,14,14,44,17.70
2013,07,14,14,45,17.70
2013,07,14,14,46,17.80
2013,07,14,14,47,17.80
2013,07,14,14,48,17.80
2013,07,14,14,49,17.90
2013,07,14,14,50,17.90
2013,07,14,14,51,18.00
2013,07,14,14,52,18.00
2013,07,14,14,53,17.90
2013,07,14,14,54,17.80
2013,07,14,14,55,17.70
2013,07,14,14,56,17.70
2013,07,14,14,57,17.60
2013,07,14,14,58,17.70
2013,07,14,14,59,17.80
2013,07,14,15,00,17.80
2013,07,14,15,01,17.80
2013,07,14,15,02,17.90
2013,07,14,15,03,17.90
2013,07,14,15,04,17.90
2013,07,14,15,05,17.90
2013,07,14,15,06,17.80
2013,07,14,15,07,17.80
2013,07,14,15,08,17.70
2013,07,14,15,09,17.70
2013,07,14,15,10,17.70
2013,07,14,15,11,17.70
2013,07,14,15,12,17.70
2013,07,14,15,13,17.70
2013,07,14,15,14,17.60
2013,07,14,15,15,17.60
2013,07,14,15,16,17.50
2013,07,14,15,17,17.40
2013,07,14,15,18,17.40
2013,07,14,15,19,17.40
2013,07,14,15,20,17.40
2013,07,14,15,21,17.30
2013,07,14,15,22,17.20
2013,07,14,15,23,17.20
2013,07,14,15,24,17.10
2013,07,14,15,25,17.00
2013,07,14,15,26,16.90
2013,07,14,15,27,16.80
2013,07,14,15,28,16.70
2013,07,14,15,29,16.70
2013,07,14,15,30,16.70
2013,07,14,15,31,16.60
2013,07,14,15,32,16.60
2013,07,14,15,33,16.60
2013,07,14,15,34,16.60
2013,07,14,15,35,16.70
2013,07,14,15,36,16.80
2013,07,14,15,37,16.80
2013,07,14,15,38,16.90
2013,07,14,15,39,16.90
2013,07,14,15,40,16.80
2013,07,14,15,41,16.80
2013,07,14,15,42,16.80
2013,07,14,15,43,16.80
2013,07,14,15,44,16.90
2013,07,14,15,45,17.00
2013,07,14,15,46,17.20
2013,07,14,15,47,17.30
2013,07,14,15,48,17.30
2013,07,14,15,49,17.40
2013,07,14,15,50,17.40
2013,07,14,15,51,17.50
2013,07,14,15,52,17.70
2013,07,14,15,53,17.80
2013,07,14,15,54,18.00
2013,07,14,15,55,18.20
2013,07,14,15,56,18.40
2013,07,14,15,57,18.60
2013,07,14,15,58,18.60
2013,07,14,15,59,18.60
2013,07,14,16,00,18.60
2013,07,14,16,01,18.70
2013,07,14,16,02,18.70
2013,07,14,16,03,18.80
2013,07,14,16,04,18.90
2013,07,14,16,05,19.00
2013,07,14,16,06,19.20
2013,07,14,16,07,19.50
2013,07,14,16,08,19.70
2013,07,14,16,09,20.00
2013,07,14,16,10,20.20
2013,07,14,16,11,20.50
2013,07,14,16,12,20.80
2013,07,14,16,13,21.10
2013,07,14,16,14,21.40
2013,07,14,16,15,21.70
2013,07,14,16,16,21.90
2013,07,14,16,17,22.20
2013,07,14,16,18,22.40
2013,07,14,16,19,22.70
2013,07,14,16,20,23.00
2013,07,14,16,21,23.30
2013,07,14,16,22,23.70
2013,07,14,16,23,24.10
2013,07,14,16,24,24.50
2013,07,14,16,25,24.70
2013,07,14,16,26,24.90
2013,07,14,16,27,25.10
2013,07,14,16,28,25.20
2013,07,14,16,29,25.40
2013,07,14,16,30,25.60
2013,07,14,16,31,25.70
2013,07,14,16,32,25.90
2013,07,14,16,33,25.90
2013,07,14,16,34,25.90
2013,07,14,16,35,26.00
2013,07,14,16,36,26.00
2013,07,14,16,37,26.10
2013,07,14,16,38,26.10
2013,07,14,16,39,26.20
2013,07,14,16,40,26.20
2013,07,14,16,41,26.20
2013,07,14,16,42,26.20
2013,07,14,16,43,26.30
2013,07,14,16,44,26.30
2013,07,14,16,45,26.30
2013,07,14,16,46,26.40
2013,07,14,16,47,26.40
2013,07,14,16,48,26.40
2013,07,14,16,49,26.40
2013,07,14,16,50,26.40
2013,07,14,16,51,26.40
2013,07,14,16,52,26.40
2013,07,14,16,53,26.40
2013,07,14,16,54,26.40
2013,07,14,16,55,26.40
2013,07,14,16,56,26.40
2013,07,14,16,57,26.40
2013,07,14,16,58,26.50
2013,07,14,16,59,26.60
2013,07,14,17,00,26.60
2013,07,14,17,01,26.60
2013,07,14,17,02,26.60
2013,07,14,17,03,26.50
2013,07,14,17,04,26.50
2013,07,14,17,05,26.40
2013,07,14,17,06,26.40
2013,07,14,17,07,26.40
2013,07,14,17,08,26.40
2013,07,14,17,09,26.40
2013,07,14,17,10,26.40
2013,07,14,17,11,26.40
2013,07,14,17,12,26.30
2013,07,14,17,13,26.30
2013,07,14,17,14,26.20
2013,07,14,17,15,26.10
2013,07,14,17,16,26.00
2013,07,14,17,17,25.90
2013,07,14,17,18,25.90
2013,07,14,17,19,25.90